SEY61 FSIA-FAOR

Flight info

Callsign SEY61
Flight time 4h 56m
Altitude 34000
Route IMPOX T136 OKLAB UM307 NESAM/N0457F360 UM307 ENDEL DCT ESTIX DCT IBMAS DCT EXOLA DCT UDKAT/N0449F380 DCT 22S034E DCT EPSEK/N0401F280 UG465 WIV WIV4A
Aircraft A320/M-SDE3FGHIRWY/LB1

Departure

Time 2026-04-21 13:35
Airport Seychelles International Airport (FSIA)

Arrival

Time 2026-04-21 18:31
Airport O.R. Tambo International Airport (FAOR)
Time Latitude Longitude Altitude Speed Heading
2026-04-21 13:06 -4.67086 55.51221 21 ft 0 kts 215°
2026-04-21 13:27 -4.67080 55.51225 20 ft 4 kts 216°
2026-04-21 13:27 -4.67059 55.51242 22 ft 4 kts 224°
2026-04-21 13:27 -4.67042 55.51262 20 ft 4 kts 249°
2026-04-21 13:28 -4.67041 55.51281 23 ft 1 kts 303°
2026-04-21 13:32 -4.67022 55.51255 20 ft 10 kts 307°
2026-04-21 13:32 -4.66959 55.51199 21 ft 13 kts 348°
2026-04-21 13:32 -4.66883 55.51183 21 ft 12 kts 315°
2026-04-21 13:32 -4.66838 55.51114 21 ft 12 kts 303°
2026-04-21 13:33 -4.66792 55.51048 21 ft 11 kts 313°
2026-04-21 13:33 -4.66747 55.51030 21 ft 10 kts 357°
2026-04-21 13:33 -4.66698 55.51056 24 ft 6 kts 34°
2026-04-21 13:33 -4.66681 55.51076 23 ft 2 kts 84°
2026-04-21 13:34 -4.66701 55.51108 23 ft 15 kts 125°
2026-04-21 13:34 -4.66922 55.51430 22 ft 95 kts 124°
2026-04-21 13:34 -4.67424 55.52158 24 ft 156 kts 124°
2026-04-21 13:34 -4.68118 55.53165 311 ft 182 kts 124°
2026-04-21 13:35 -4.68814 55.54209 1189 ft 179 kts 122°
2026-04-21 13:35 -4.69544 55.55226 1987 ft 185 kts 137°
2026-04-21 13:35 -4.70785 55.55758 2384 ft 209 kts 178°
2026-04-21 13:35 -4.72218 55.55308 2572 ft 231 kts 213°
2026-04-21 13:36 -4.73607 55.54340 2760 ft 255 kts 214°
2026-04-21 13:36 -4.75098 55.53270 3209 ft 269 kts 215°
2026-04-21 13:36 -4.76635 55.52162 3909 ft 274 kts 215°
2026-04-21 13:36 -4.78192 55.51044 4662 ft 277 kts 215°
2026-04-21 13:37 -4.79772 55.49920 5365 ft 280 kts 214°
2026-04-21 13:37 -4.81374 55.48789 6079 ft 283 kts 214°
2026-04-21 13:37 -4.82991 55.47649 6749 ft 286 kts 214°
2026-04-21 13:37 -4.84624 55.46497 7408 ft 288 kts 214°
2026-04-21 13:38 -4.86270 55.45337 8066 ft 291 kts 214°
2026-04-21 13:38 -4.87931 55.44167 8723 ft 293 kts 214°
2026-04-21 13:38 -4.89605 55.42988 9383 ft 295 kts 214°
2026-04-21 13:38 -4.91296 55.41797 9954 ft 301 kts 214°
2026-04-21 13:39 -4.93070 55.40549 10067 ft 322 kts 214°
2026-04-21 13:39 -4.94959 55.39222 10203 ft 340 kts 214°
2026-04-21 13:39 -4.96923 55.37844 10596 ft 348 kts 214°
2026-04-21 13:39 -4.98919 55.36444 11105 ft 352 kts 214°
2026-04-21 13:40 -5.00933 55.35028 11638 ft 355 kts 214°
2026-04-21 13:40 -5.02960 55.33602 12164 ft 358 kts 214°
2026-04-21 13:40 -5.05674 55.31690 12853 ft 362 kts 215°
2026-04-21 13:40 -5.06942 55.30797 13170 ft 364 kts 215°
2026-04-21 13:41 -5.09018 55.29331 13688 ft 366 kts 215°
2026-04-21 13:41 -5.10964 55.27670 14129 ft 369 kts 226°
2026-04-21 13:41 -5.12551 55.25636 14583 ft 372 kts 238°
2026-04-21 13:41 -5.13890 55.23406 15047 ft 374 kts 239°
2026-04-21 13:42 -5.15234 55.21164 15514 ft 376 kts 239°
2026-04-21 13:42 -5.16587 55.18909 15975 ft 378 kts 239°
2026-04-21 13:42 -5.17950 55.16641 16424 ft 381 kts 238°
2026-04-21 13:42 -5.19323 55.14359 16873 ft 383 kts 238°
2026-04-21 13:43 -5.20708 55.12058 17328 ft 386 kts 238°
2026-04-21 13:43 -5.22100 55.09748 17779 ft 388 kts 238°
2026-04-21 13:43 -5.23499 55.07424 18217 ft 391 kts 239°
2026-04-21 13:43 -5.24906 55.05083 18611 ft 393 kts 239°
2026-04-21 13:44 -5.26317 55.02726 19002 ft 395 kts 239°
2026-04-21 13:44 -5.27736 55.00356 19394 ft 398 kts 239°
2026-04-21 13:44 -5.29164 54.97972 19795 ft 400 kts 239°
2026-04-21 13:44 -5.30603 54.95575 20192 ft 402 kts 239°
2026-04-21 13:45 -5.32050 54.93166 20609 ft 404 kts 239°
2026-04-21 13:45 -5.33486 54.90776 21002 ft 406 kts 239°
2026-04-21 13:45 -5.34948 54.88339 21402 ft 409 kts 240°
2026-04-21 13:45 -5.36419 54.85890 21786 ft 411 kts 240°
2026-04-21 13:46 -5.37899 54.83432 22164 ft 413 kts 240°
2026-04-21 13:46 -5.39389 54.80955 22529 ft 416 kts 240°
2026-04-21 13:46 -5.40884 54.78461 22876 ft 418 kts 240°
2026-04-21 13:46 -5.42384 54.75955 23228 ft 420 kts 240°
2026-04-21 13:47 -5.43891 54.73433 23539 ft 422 kts 240°
2026-04-21 13:47 -5.45407 54.70898 23810 ft 425 kts 240°
2026-04-21 13:47 -5.46932 54.68353 24093 ft 426 kts 240°
2026-04-21 13:47 -5.48465 54.65797 24373 ft 428 kts 240°
2026-04-21 13:48 -5.50007 54.63234 24654 ft 430 kts 240°
2026-04-21 13:48 -5.51556 54.60660 24922 ft 431 kts 240°
2026-04-21 13:48 -5.53108 54.58076 25190 ft 433 kts 240°
2026-04-21 13:48 -5.54665 54.55483 25450 ft 435 kts 240°
2026-04-21 13:49 -5.56226 54.52877 25709 ft 437 kts 240°
2026-04-21 13:49 -5.57794 54.50256 25968 ft 438 kts 240°
2026-04-21 13:49 -5.59363 54.47630 26230 ft 440 kts 240°
2026-04-21 13:49 -5.60941 54.44990 26482 ft 441 kts 240°
2026-04-21 13:50 -5.62525 54.42342 26726 ft 443 kts 240°
2026-04-21 13:50 -5.64118 54.39686 26968 ft 445 kts 240°
2026-04-21 13:50 -5.65716 54.37021 27208 ft 446 kts 241°
2026-04-21 13:50 -5.67317 54.34343 27443 ft 448 kts 241°
2026-04-21 13:51 -5.68922 54.31657 27676 ft 449 kts 241°
2026-04-21 13:51 -5.70535 54.28966 27915 ft 451 kts 241°
2026-04-21 13:51 -5.72156 54.26262 28146 ft 453 kts 241°
2026-04-21 13:51 -5.73781 54.23551 28392 ft 454 kts 241°
2026-04-21 13:52 -5.75411 54.20833 28698 ft 454 kts 241°
2026-04-21 13:52 -5.77036 54.18119 29062 ft 453 kts 241°
2026-04-21 13:52 -5.78654 54.15411 29418 ft 452 kts 241°
2026-04-21 13:52 -5.80249 54.12740 29776 ft 451 kts 242°
2026-04-21 13:53 -5.81861 54.10036 30102 ft 450 kts 242°
2026-04-21 13:53 -5.83468 54.07344 30407 ft 449 kts 242°
2026-04-21 13:53 -5.85074 54.04655 30725 ft 448 kts 242°
2026-04-21 13:53 -5.86678 54.01969 31028 ft 447 kts 242°
2026-04-21 13:54 -5.88276 53.99294 31342 ft 447 kts 242°
2026-04-21 13:54 -5.89873 53.96620 31656 ft 446 kts 242°
2026-04-21 13:54 -5.91464 53.93956 31977 ft 445 kts 242°
2026-04-21 13:54 -5.93054 53.91292 32297 ft 444 kts 242°
2026-04-21 13:55 -5.94638 53.88636 32618 ft 443 kts 242°
2026-04-21 13:55 -5.96220 53.85987 32933 ft 442 kts 242°
2026-04-21 13:55 -5.97803 53.83342 33239 ft 441 kts 242°
2026-04-21 13:55 -5.99380 53.80703 33535 ft 440 kts 242°
2026-04-21 13:56 -6.00954 53.78066 33791 ft 440 kts 242°
2026-04-21 13:56 -6.02530 53.75421 33851 ft 443 kts 242°
2026-04-21 13:56 -6.05719 53.70068 33864 ft 449 kts 242°
2026-04-21 13:57 -6.08931 53.64682 33862 ft 449 kts 242°
2026-04-21 13:57 -6.12151 53.59294 33863 ft 450 kts 242°
2026-04-21 13:58 -6.15370 53.53901 33865 ft 450 kts 242°
2026-04-21 13:58 -6.18579 53.48503 33866 ft 450 kts 242°
2026-04-21 13:59 -6.21793 53.43107 33873 ft 450 kts 242°
2026-04-21 13:59 -6.24993 53.37743 33876 ft 450 kts 242°
2026-04-21 14:00 -6.28209 53.32343 33875 ft 450 kts 242°
2026-04-21 14:00 -6.31422 53.26940 33877 ft 450 kts 242°
2026-04-21 14:01 -6.34641 53.21533 33878 ft 450 kts 242°
2026-04-21 14:01 -6.37861 53.16130 33874 ft 451 kts 242°
2026-04-21 14:02 -6.41127 53.10747 33877 ft 452 kts 237°
2026-04-21 14:03 -6.47015 53.03286 33887 ft 454 kts 234°
2026-04-21 14:03 -6.50968 52.98330 33881 ft 454 kts 234°
2026-04-21 14:04 -6.54913 52.93371 33879 ft 454 kts 234°
2026-04-21 14:04 -6.58827 52.88436 33877 ft 454 kts 234°
2026-04-21 14:05 -6.62774 52.83471 33880 ft 454 kts 233°
2026-04-21 14:05 -6.66723 52.78510 33888 ft 454 kts 234°
2026-04-21 14:06 -6.70668 52.73548 33884 ft 454 kts 234°
2026-04-21 14:06 -6.74607 52.68588 33887 ft 453 kts 234°
2026-04-21 14:07 -6.78544 52.63634 33891 ft 453 kts 234°
2026-04-21 14:07 -6.82478 52.58684 33885 ft 453 kts 234°
2026-04-21 14:08 -6.86404 52.53737 33890 ft 452 kts 234°
2026-04-21 14:08 -6.90325 52.48791 33888 ft 452 kts 234°
2026-04-21 14:09 -6.94248 52.43840 33890 ft 452 kts 234°
2026-04-21 14:09 -6.98182 52.38894 33896 ft 453 kts 234°
2026-04-21 14:10 -7.02111 52.33945 33892 ft 453 kts 234°
2026-04-21 14:10 -7.06029 52.28979 33887 ft 453 kts 234°
2026-04-21 14:11 -7.09949 52.24018 33897 ft 453 kts 234°
2026-04-21 14:11 -7.13875 52.19063 33895 ft 452 kts 234°
2026-04-21 14:12 -7.17779 52.14147 33894 ft 452 kts 234°
2026-04-21 14:12 -7.21699 52.09196 33896 ft 452 kts 234°
2026-04-21 14:13 -7.25612 52.04252 33897 ft 451 kts 234°
2026-04-21 14:13 -7.29525 51.99312 33899 ft 451 kts 234°
2026-04-21 14:14 -7.33429 51.94382 33895 ft 450 kts 234°
2026-04-21 14:14 -7.37327 51.89454 33897 ft 449 kts 234°
2026-04-21 14:15 -7.41213 51.84532 33898 ft 448 kts 234°
2026-04-21 14:15 -7.45093 51.79619 33901 ft 447 kts 234°
2026-04-21 14:16 -7.48929 51.74757 33899 ft 446 kts 234°
2026-04-21 14:16 -7.52809 51.69843 33899 ft 444 kts 234°
2026-04-21 14:17 -7.56658 51.64975 33902 ft 443 kts 235°
2026-04-21 14:17 -7.60469 51.60146 33901 ft 443 kts 235°
2026-04-21 14:18 -7.64291 51.55295 33904 ft 442 kts 235°
2026-04-21 14:18 -7.68113 51.50447 33902 ft 441 kts 235°
2026-04-21 14:19 -7.71934 51.45603 33901 ft 441 kts 235°
2026-04-21 14:19 -7.75747 51.40769 33899 ft 440 kts 235°
2026-04-21 14:20 -7.79557 51.35933 33897 ft 440 kts 235°
2026-04-21 14:20 -7.83364 51.31100 33893 ft 440 kts 235°
2026-04-21 14:21 -7.87167 51.26270 33896 ft 440 kts 235°
2026-04-21 14:21 -7.90973 51.21438 33900 ft 440 kts 235°
2026-04-21 14:22 -7.94137 51.17422 33899 ft 440 kts 235°
2026-04-21 14:22 -7.97941 51.12588 33894 ft 440 kts 235°
2026-04-21 14:23 -8.02355 51.06962 33894 ft 440 kts 236°
2026-04-21 14:23 -8.05539 51.02908 33895 ft 440 kts 235°
2026-04-21 14:24 -8.09351 50.98072 33891 ft 440 kts 235°
2026-04-21 14:24 -8.13148 50.93231 33900 ft 440 kts 236°
2026-04-21 14:25 -8.16942 50.88392 33898 ft 440 kts 236°
2026-04-21 14:25 -8.20739 50.83552 33898 ft 440 kts 236°
2026-04-21 14:26 -8.24537 50.78713 33899 ft 439 kts 236°
2026-04-21 14:26 -8.28310 50.73914 33898 ft 439 kts 236°
2026-04-21 14:27 -8.32103 50.69078 33900 ft 439 kts 236°
2026-04-21 14:27 -8.35889 50.64244 33906 ft 439 kts 236°
2026-04-21 14:28 -8.39680 50.59414 33904 ft 438 kts 236°
2026-04-21 14:28 -8.43466 50.54580 33908 ft 438 kts 236°
2026-04-21 14:29 -8.47241 50.49751 33904 ft 438 kts 236°
2026-04-21 14:29 -8.51011 50.44926 33898 ft 437 kts 236°
2026-04-21 14:30 -8.54795 50.40105 33912 ft 437 kts 236°
2026-04-21 14:30 -8.58566 50.35289 33910 ft 437 kts 236°
2026-04-21 14:31 -8.62301 50.30504 33907 ft 436 kts 236°
2026-04-21 14:31 -8.66067 50.25693 33909 ft 436 kts 236°
2026-04-21 14:32 -8.69826 50.20882 33905 ft 436 kts 236°
2026-04-21 14:32 -8.73578 50.16071 33908 ft 436 kts 236°
2026-04-21 14:33 -8.77327 50.11262 33904 ft 435 kts 236°
2026-04-21 14:33 -8.81080 50.06463 33907 ft 435 kts 236°
2026-04-21 14:34 -8.84830 50.01659 33903 ft 435 kts 236°
2026-04-21 14:34 -8.88582 49.96854 33907 ft 435 kts 236°
2026-04-21 14:35 -8.92334 49.92044 33915 ft 435 kts 236°
2026-04-21 14:35 -8.96081 49.87233 33912 ft 435 kts 236°
2026-04-21 14:36 -8.99827 49.82423 33916 ft 435 kts 236°
2026-04-21 14:36 -9.03574 49.77615 33912 ft 435 kts 236°
2026-04-21 14:37 -9.07316 49.72802 33911 ft 435 kts 236°
2026-04-21 14:37 -9.11041 49.68017 33916 ft 436 kts 236°
2026-04-21 14:38 -9.14792 49.63202 33911 ft 436 kts 236°
2026-04-21 14:38 -9.18541 49.58380 33914 ft 436 kts 236°
2026-04-21 14:39 -9.22294 49.53549 33912 ft 436 kts 236°
2026-04-21 14:39 -9.26047 49.48718 33914 ft 436 kts 236°
2026-04-21 14:40 -9.29803 49.43883 33911 ft 437 kts 236°
2026-04-21 14:40 -9.33556 49.39045 33915 ft 437 kts 236°
2026-04-21 14:41 -9.37314 49.34203 33908 ft 437 kts 235°
2026-04-21 14:41 -9.41046 49.29397 33907 ft 437 kts 235°
2026-04-21 14:42 -9.44806 49.24560 33906 ft 437 kts 235°
2026-04-21 14:42 -9.48564 49.19710 33910 ft 438 kts 235°
2026-04-21 14:43 -9.52325 49.14857 33915 ft 438 kts 235°
2026-04-21 14:43 -9.56092 49.10006 33917 ft 438 kts 235°
2026-04-21 14:44 -9.59853 49.05147 33917 ft 438 kts 235°
2026-04-21 14:44 -9.63608 49.00284 33921 ft 438 kts 234°
2026-04-21 14:45 -9.67358 48.95427 33920 ft 437 kts 234°
2026-04-21 14:45 -9.71110 48.90583 33924 ft 436 kts 234°
2026-04-21 14:46 -9.74862 48.85749 33923 ft 436 kts 234°
2026-04-21 14:46 -9.78598 48.80913 33927 ft 435 kts 234°
2026-04-21 14:47 -9.82324 48.76083 33929 ft 435 kts 234°
2026-04-21 14:47 -9.86047 48.71257 33927 ft 434 kts 234°
2026-04-21 14:48 -9.89765 48.66435 33928 ft 434 kts 233°
2026-04-21 14:48 -9.93490 48.61621 33925 ft 434 kts 233°
2026-04-21 14:49 -9.97207 48.56805 33922 ft 433 kts 233°
2026-04-21 14:49 -10.01045 48.52091 33920 ft 434 kts 227°
2026-04-21 14:50 -10.04574 48.48472 33919 ft 434 kts 226°
2026-04-21 14:50 -10.09504 48.43410 33918 ft 434 kts 227°
2026-04-21 14:51 -10.13737 48.39053 33917 ft 433 kts 226°
2026-04-21 14:51 -10.17972 48.34695 33914 ft 433 kts 226°
2026-04-21 14:52 -10.22209 48.30343 33915 ft 433 kts 226°
2026-04-21 14:52 -10.26450 48.25988 33915 ft 433 kts 226°
2026-04-21 14:53 -10.30686 48.21629 33918 ft 433 kts 226°
2026-04-21 14:53 -10.34911 48.17262 33916 ft 434 kts 226°
2026-04-21 14:54 -10.39148 48.12893 33920 ft 434 kts 225°
2026-04-21 14:54 -10.43363 48.08554 33920 ft 434 kts 225°
2026-04-21 14:55 -10.47605 48.04182 33919 ft 435 kts 225°
2026-04-21 14:55 -10.51843 47.99802 33924 ft 435 kts 225°
2026-04-21 14:56 -10.56091 47.95422 33925 ft 435 kts 225°
2026-04-21 14:56 -10.60342 47.91035 33928 ft 435 kts 225°
2026-04-21 14:57 -10.64589 47.86640 33931 ft 436 kts 225°
2026-04-21 14:57 -10.68842 47.82239 33931 ft 437 kts 224°
2026-04-21 14:58 -10.73102 47.77831 33931 ft 437 kts 224°
2026-04-21 14:58 -10.77374 47.73421 33928 ft 438 kts 224°
2026-04-21 14:59 -10.81650 47.69006 33928 ft 438 kts 224°
2026-04-21 14:59 -10.85927 47.64579 33928 ft 438 kts 224°
2026-04-21 15:00 -10.90193 47.60152 33931 ft 438 kts 224°
2026-04-21 15:00 -10.94439 47.55752 33931 ft 438 kts 224°
2026-04-21 15:01 -10.98712 47.51325 33932 ft 438 kts 224°
2026-04-21 15:01 -11.02986 47.46900 33936 ft 438 kts 224°
2026-04-21 15:02 -11.07260 47.42473 33934 ft 438 kts 224°
2026-04-21 15:02 -11.11533 47.38038 33942 ft 438 kts 224°
2026-04-21 15:03 -11.15802 47.33608 33950 ft 438 kts 224°
2026-04-21 15:03 -11.20070 47.29172 33942 ft 438 kts 224°
2026-04-21 15:04 -11.24333 47.24746 33945 ft 438 kts 223°
2026-04-21 15:04 -11.28559 47.20354 33940 ft 437 kts 223°
2026-04-21 15:05 -11.32816 47.15931 33939 ft 437 kts 223°
2026-04-21 15:05 -11.39195 47.09302 33938 ft 437 kts 223°
2026-04-21 15:06 -11.43445 47.04876 33937 ft 437 kts 223°
2026-04-21 15:06 -11.47693 47.00446 33935 ft 437 kts 223°
2026-04-21 15:07 -11.51942 46.96018 33938 ft 437 kts 223°
2026-04-21 15:07 -11.56162 46.91623 33937 ft 436 kts 223°
2026-04-21 15:08 -11.60415 46.87197 33931 ft 436 kts 223°
2026-04-21 15:08 -11.64659 46.82769 33928 ft 437 kts 223°
2026-04-21 15:09 -11.68902 46.78332 33932 ft 437 kts 223°
2026-04-21 15:09 -11.73145 46.73895 33931 ft 437 kts 223°
2026-04-21 15:10 -11.77392 46.69461 33936 ft 437 kts 223°
2026-04-21 15:10 -11.81640 46.65030 33939 ft 437 kts 223°
2026-04-21 15:11 -11.85885 46.60591 33940 ft 437 kts 223°
2026-04-21 15:11 -11.90123 46.56143 33944 ft 437 kts 223°
2026-04-21 15:12 -11.93651 46.52452 33944 ft 437 kts 223°
2026-04-21 15:12 -11.98619 46.47260 33943 ft 437 kts 223°
2026-04-21 15:13 -12.02148 46.43569 33944 ft 437 kts 223°
2026-04-21 15:13 -12.06392 46.39122 33946 ft 437 kts 223°
2026-04-21 15:14 -12.10632 46.34675 33950 ft 437 kts 223°
2026-04-21 15:14 -12.14868 46.30222 33935 ft 437 kts 223°
2026-04-21 15:15 -12.19107 46.25769 33945 ft 437 kts 223°
2026-04-21 15:15 -12.23348 46.21320 33941 ft 437 kts 223°
2026-04-21 15:16 -12.27560 46.16897 33943 ft 437 kts 223°
2026-04-21 15:16 -12.31584 46.12232 33935 ft 440 kts 234°
2026-04-21 15:17 -12.34770 46.06867 33941 ft 442 kts 236°
2026-04-21 15:17 -12.37941 46.01484 33948 ft 442 kts 236°
2026-04-21 15:18 -12.41121 45.96100 33936 ft 442 kts 236°
2026-04-21 15:18 -12.44302 45.90713 33939 ft 442 kts 236°
2026-04-21 15:19 -12.47481 45.85320 33938 ft 443 kts 236°
2026-04-21 15:19 -12.50664 45.79919 33937 ft 443 kts 236°
2026-04-21 15:20 -12.53825 45.74550 33932 ft 443 kts 236°
2026-04-21 15:20 -12.57006 45.69141 33932 ft 443 kts 235°
2026-04-21 15:21 -12.60203 45.63715 34173 ft 446 kts 235°
2026-04-21 15:21 -12.61802 45.60997 34438 ft 446 kts 235°
2026-04-21 15:21 -12.63400 45.58277 34711 ft 445 kts 235°
2026-04-21 15:22 -12.64995 45.55565 34980 ft 444 kts 235°
2026-04-21 15:22 -12.66587 45.52853 35244 ft 444 kts 236°
2026-04-21 15:22 -12.68175 45.50150 35504 ft 443 kts 236°
2026-04-21 15:22 -12.69761 45.47449 35761 ft 442 kts 236°
2026-04-21 15:23 -12.71346 45.44747 35890 ft 442 kts 236°
2026-04-21 15:23 -12.72930 45.42048 35918 ft 442 kts 236°
2026-04-21 15:23 -12.76097 45.36652 35920 ft 442 kts 236°
2026-04-21 15:24 -12.79258 45.31252 35921 ft 442 kts 236°
2026-04-21 15:24 -12.82586 45.25987 35920 ft 439 kts 231°
2026-04-21 15:25 -12.86160 45.20959 35920 ft 439 kts 230°
2026-04-21 15:25 -12.89773 45.15902 35929 ft 440 kts 230°
2026-04-21 15:26 -12.93388 45.10831 35934 ft 440 kts 230°
2026-04-21 15:26 -12.96990 45.05748 35944 ft 441 kts 230°
2026-04-21 15:27 -13.00599 45.00660 35950 ft 441 kts 230°
2026-04-21 15:27 -13.04210 44.95568 35956 ft 441 kts 230°
2026-04-21 15:28 -13.07813 44.90478 35958 ft 441 kts 230°
2026-04-21 15:28 -13.11420 44.85379 35956 ft 441 kts 230°
2026-04-21 15:29 -13.15022 44.80282 35957 ft 441 kts 230°
2026-04-21 15:29 -13.18634 44.75191 35962 ft 441 kts 230°
2026-04-21 15:30 -13.22245 44.70098 35960 ft 441 kts 230°
2026-04-21 15:30 -13.25844 44.64997 35959 ft 441 kts 230°
2026-04-21 15:31 -13.29417 44.59926 35963 ft 441 kts 230°
2026-04-21 15:31 -13.33020 44.54822 35963 ft 441 kts 230°
2026-04-21 15:32 -13.36617 44.49722 35961 ft 441 kts 230°
2026-04-21 15:32 -13.40223 44.44630 35967 ft 441 kts 230°
2026-04-21 15:33 -13.43840 44.39548 35963 ft 441 kts 230°
2026-04-21 15:33 -13.47454 44.34456 35966 ft 441 kts 230°
2026-04-21 15:34 -13.51061 44.29364 35965 ft 441 kts 230°
2026-04-21 15:34 -13.54669 44.24273 35967 ft 441 kts 230°
2026-04-21 15:35 -13.58280 44.19182 35963 ft 441 kts 230°
2026-04-21 15:35 -13.61886 44.14088 35967 ft 441 kts 230°
2026-04-21 15:36 -13.65490 44.08989 35964 ft 441 kts 230°
2026-04-21 15:36 -13.69098 44.03888 35964 ft 441 kts 230°
2026-04-21 15:37 -13.72698 43.98784 35967 ft 441 kts 230°
2026-04-21 15:37 -13.76300 43.93677 35967 ft 441 kts 230°
2026-04-21 15:38 -13.79905 43.88571 35970 ft 441 kts 230°
2026-04-21 15:38 -13.83511 43.83467 35968 ft 441 kts 230°
2026-04-21 15:39 -13.87115 43.78356 35967 ft 441 kts 230°
2026-04-21 15:39 -13.90715 43.73241 35968 ft 441 kts 230°
2026-04-21 15:40 -13.94316 43.68129 35968 ft 441 kts 230°
2026-04-21 15:40 -13.97922 43.63010 35968 ft 441 kts 230°
2026-04-21 15:41 -14.01521 43.57885 35970 ft 441 kts 230°
2026-04-21 15:41 -14.05116 43.52767 35968 ft 441 kts 230°
2026-04-21 15:42 -14.08684 43.47674 35972 ft 441 kts 230°
2026-04-21 15:42 -14.12277 43.42550 35970 ft 441 kts 230°
2026-04-21 15:43 -14.15878 43.37434 35974 ft 441 kts 230°
2026-04-21 15:43 -14.19477 43.32316 35972 ft 441 kts 230°
2026-04-21 15:44 -14.23065 43.27192 35976 ft 441 kts 230°
2026-04-21 15:44 -14.26645 43.22061 35974 ft 441 kts 230°
2026-04-21 15:45 -14.30232 43.16934 35975 ft 441 kts 230°
2026-04-21 15:45 -14.33816 43.11811 35974 ft 440 kts 230°
2026-04-21 15:46 -14.37397 43.06684 35978 ft 440 kts 230°
2026-04-21 15:46 -14.40973 43.01563 35975 ft 440 kts 230°
2026-04-21 15:47 -14.44543 42.96439 35974 ft 440 kts 230°
2026-04-21 15:47 -14.48116 42.91321 35977 ft 439 kts 230°
2026-04-21 15:48 -14.51685 42.86207 35980 ft 439 kts 230°
2026-04-21 15:48 -14.55458 42.81293 35980 ft 433 kts 220°
2026-04-21 15:49 -14.59748 42.76935 35979 ft 433 kts 220°
2026-04-21 15:49 -14.64038 42.72570 35979 ft 433 kts 220°
2026-04-21 15:50 -14.68315 42.68205 35980 ft 432 kts 221°
2026-04-21 15:50 -14.72591 42.63839 35983 ft 432 kts 221°
2026-04-21 15:51 -14.76834 42.59500 35981 ft 432 kts 221°
2026-04-21 15:51 -14.81098 42.55133 35980 ft 431 kts 221°
2026-04-21 15:52 -14.85359 42.50762 35979 ft 431 kts 221°
2026-04-21 15:52 -14.89622 42.46402 35977 ft 431 kts 221°
2026-04-21 15:53 -14.93886 42.42048 35979 ft 431 kts 221°
2026-04-21 15:53 -14.98145 42.37688 35981 ft 431 kts 221°
2026-04-21 15:54 -15.02394 42.33318 35981 ft 431 kts 221°
2026-04-21 15:54 -15.06648 42.28958 35981 ft 430 kts 221°
2026-04-21 15:55 -15.10895 42.24604 35980 ft 430 kts 221°
2026-04-21 15:55 -15.15137 42.20242 35980 ft 430 kts 221°
2026-04-21 15:56 -15.19384 42.15888 35976 ft 430 kts 221°
2026-04-21 15:56 -15.23625 42.11526 35979 ft 430 kts 221°
2026-04-21 15:57 -15.27856 42.07161 35981 ft 429 kts 221°
2026-04-21 15:57 -15.32092 42.02805 35980 ft 429 kts 221°
2026-04-21 15:58 -15.36325 41.98450 35977 ft 429 kts 221°
2026-04-21 15:58 -15.40560 41.94084 35975 ft 429 kts 221°
2026-04-21 15:59 -15.44787 41.89722 35975 ft 429 kts 221°
2026-04-21 15:59 -15.48991 41.85383 35976 ft 429 kts 221°
2026-04-21 16:00 -15.53221 41.81014 35978 ft 429 kts 221°
2026-04-21 16:00 -15.57453 41.76642 35979 ft 429 kts 221°
2026-04-21 16:01 -15.61683 41.72273 35977 ft 429 kts 221°
2026-04-21 16:01 -15.65912 41.67893 35975 ft 430 kts 222°
2026-04-21 16:02 -15.69452 41.64220 35974 ft 430 kts 222°
2026-04-21 16:02 -15.73686 41.59841 35976 ft 430 kts 221°
2026-04-21 16:03 -15.77922 41.55458 35981 ft 430 kts 222°
2026-04-21 16:03 -15.82154 41.51068 35978 ft 430 kts 222°
2026-04-21 16:04 -15.86388 41.46675 35978 ft 430 kts 222°
2026-04-21 16:04 -15.90625 41.42283 35977 ft 431 kts 222°
2026-04-21 16:05 -15.94864 41.37878 35983 ft 431 kts 222°
2026-04-21 16:05 -15.99076 41.33495 35984 ft 431 kts 222°
2026-04-21 16:06 -16.03311 41.29079 35984 ft 432 kts 223°
2026-04-21 16:06 -16.07553 41.24658 35985 ft 432 kts 223°
2026-04-21 16:07 -16.11799 41.20236 35981 ft 432 kts 223°
2026-04-21 16:07 -16.16047 41.15812 35985 ft 432 kts 223°
2026-04-21 16:08 -16.22412 41.09176 35988 ft 432 kts 223°
2026-04-21 16:09 -16.26656 41.04747 35988 ft 432 kts 223°
2026-04-21 16:09 -16.30900 41.00314 35989 ft 432 kts 223°
2026-04-21 16:10 -16.35148 40.95878 35990 ft 432 kts 223°
2026-04-21 16:10 -16.39400 40.91439 35990 ft 433 kts 223°
2026-04-21 16:11 -16.43614 40.87026 35991 ft 433 kts 223°
2026-04-21 16:11 -16.47856 40.82574 35991 ft 433 kts 223°
2026-04-21 16:12 -16.52102 40.78118 35994 ft 433 kts 223°
2026-04-21 16:12 -16.56348 40.73667 35996 ft 433 kts 223°
2026-04-21 16:13 -16.60594 40.69218 35996 ft 433 kts 223°
2026-04-21 16:13 -16.64831 40.64766 35994 ft 433 kts 223°
2026-04-21 16:14 -16.69074 40.60314 35995 ft 433 kts 223°
2026-04-21 16:14 -16.73310 40.55860 35995 ft 433 kts 223°
2026-04-21 16:15 -16.77541 40.51397 35999 ft 433 kts 223°
2026-04-21 16:15 -16.81776 40.46932 35996 ft 432 kts 223°
2026-04-21 16:16 -16.86010 40.42474 36002 ft 432 kts 223°
2026-04-21 16:16 -16.90245 40.38017 36006 ft 432 kts 223°
2026-04-21 16:17 -16.94409 40.33538 36005 ft 432 kts 225°
2026-04-21 16:17 -16.98492 40.28919 36004 ft 433 kts 225°
2026-04-21 16:18 -17.02553 40.24283 36004 ft 432 kts 225°
2026-04-21 16:18 -17.06633 40.19667 36004 ft 432 kts 225°
2026-04-21 16:19 -17.10724 40.15055 36003 ft 432 kts 225°
2026-04-21 16:19 -17.14815 40.10441 36010 ft 432 kts 225°
2026-04-21 16:20 -17.18904 40.05828 36006 ft 432 kts 225°
2026-04-21 16:20 -17.22986 40.01217 36005 ft 432 kts 225°
2026-04-21 16:21 -17.27069 39.96599 36006 ft 432 kts 225°
2026-04-21 16:21 -17.31121 39.92010 36002 ft 432 kts 225°
2026-04-21 16:22 -17.35195 39.87388 36011 ft 432 kts 225°
2026-04-21 16:22 -17.39272 39.82761 36009 ft 432 kts 225°
2026-04-21 16:23 -17.43350 39.78143 36011 ft 432 kts 225°
2026-04-21 16:23 -17.47432 39.73524 36007 ft 432 kts 225°
2026-04-21 16:24 -17.51505 39.68902 36011 ft 432 kts 225°
2026-04-21 16:24 -17.55575 39.64276 36010 ft 431 kts 225°
2026-04-21 16:25 -17.59637 39.59649 36010 ft 431 kts 226°
2026-04-21 16:25 -17.63699 39.55020 36010 ft 431 kts 225°
2026-04-21 16:26 -17.67764 39.50393 36013 ft 431 kts 226°
2026-04-21 16:26 -17.71798 39.45790 36012 ft 431 kts 226°
2026-04-21 16:27 -17.75857 39.41162 36016 ft 431 kts 226°
2026-04-21 16:27 -17.79913 39.36532 36017 ft 431 kts 226°
2026-04-21 16:28 -17.83967 39.31902 36010 ft 430 kts 226°
2026-04-21 16:28 -17.88012 39.27275 36019 ft 430 kts 226°
2026-04-21 16:29 -17.92061 39.22648 36010 ft 430 kts 226°
2026-04-21 16:29 -17.96105 39.18018 36012 ft 430 kts 226°
2026-04-21 16:30 -18.00150 39.13390 36016 ft 430 kts 226°
2026-04-21 16:30 -18.04190 39.08760 36017 ft 430 kts 226°
2026-04-21 16:31 -18.08230 39.04119 36020 ft 429 kts 226°
2026-04-21 16:31 -18.12264 38.99488 36013 ft 429 kts 226°
2026-04-21 16:32 -18.16260 38.94891 36015 ft 428 kts 226°
2026-04-21 16:32 -18.20281 38.90266 36014 ft 428 kts 226°
2026-04-21 16:33 -18.24307 38.85644 36019 ft 428 kts 226°
2026-04-21 16:33 -18.28322 38.81018 36021 ft 428 kts 226°
2026-04-21 16:34 -18.32338 38.76390 36017 ft 428 kts 226°
2026-04-21 16:34 -18.36348 38.71762 36019 ft 428 kts 226°
2026-04-21 16:35 -18.40362 38.67131 36020 ft 428 kts 226°
2026-04-21 16:35 -18.44376 38.62498 36000 ft 428 kts 227°
2026-04-21 16:36 -18.48392 38.57864 36008 ft 429 kts 227°
2026-04-21 16:36 -18.52409 38.53210 36017 ft 429 kts 227°
2026-04-21 16:37 -18.56426 38.48552 36016 ft 429 kts 227°
2026-04-21 16:37 -18.60447 38.43895 36013 ft 429 kts 227°
2026-04-21 16:38 -18.64463 38.39237 36016 ft 429 kts 227°
2026-04-21 16:38 -18.68482 38.34584 36014 ft 429 kts 227°
2026-04-21 16:39 -18.72493 38.29924 36020 ft 429 kts 227°
2026-04-21 16:39 -18.76480 38.25289 36018 ft 429 kts 227°
2026-04-21 16:40 -18.80489 38.20627 36010 ft 429 kts 227°
2026-04-21 16:40 -18.84498 38.15970 36014 ft 428 kts 227°
2026-04-21 16:41 -18.87828 38.12102 36015 ft 428 kts 227°
2026-04-21 16:41 -18.92500 38.06652 36014 ft 428 kts 227°
2026-04-21 16:42 -18.96499 38.01983 36016 ft 428 kts 227°
2026-04-21 16:42 -19.00488 37.97305 36008 ft 428 kts 228°
2026-04-21 16:43 -19.04375 37.92529 36018 ft 429 kts 229°
2026-04-21 16:43 -19.08212 37.87703 36017 ft 429 kts 230°
2026-04-21 16:44 -19.12060 37.82885 36016 ft 429 kts 229°
2026-04-21 16:44 -19.15928 37.78082 36018 ft 429 kts 229°
2026-04-21 16:45 -19.19777 37.73311 36012 ft 429 kts 230°
2026-04-21 16:45 -19.23645 37.68501 36022 ft 429 kts 230°
2026-04-21 16:46 -19.27516 37.63690 36020 ft 429 kts 230°
2026-04-21 16:46 -19.31386 37.58871 36017 ft 429 kts 230°
2026-04-21 16:47 -19.35252 37.54051 36020 ft 430 kts 230°
2026-04-21 16:47 -19.39130 37.49224 36021 ft 430 kts 230°
2026-04-21 16:48 -19.43000 37.44397 36015 ft 430 kts 230°
2026-04-21 16:48 -19.46864 37.39563 36029 ft 430 kts 230°
2026-04-21 16:49 -19.50727 37.34727 36013 ft 430 kts 230°
2026-04-21 16:49 -19.54591 37.29891 36015 ft 430 kts 230°
2026-04-21 16:50 -19.58460 37.25052 36023 ft 430 kts 230°
2026-04-21 16:50 -19.61675 37.21030 36015 ft 430 kts 230°
2026-04-21 16:51 -19.65540 37.16184 36023 ft 430 kts 230°
2026-04-21 16:51 -19.69398 37.11335 36016 ft 430 kts 230°
2026-04-21 16:52 -19.73254 37.06479 36018 ft 430 kts 230°
2026-04-21 16:52 -19.77115 37.01626 36019 ft 430 kts 230°
2026-04-21 16:53 -19.80979 36.96768 36016 ft 430 kts 231°
2026-04-21 16:53 -19.84838 36.91910 36011 ft 430 kts 231°
2026-04-21 16:54 -19.88697 36.87052 36011 ft 430 kts 231°
2026-04-21 16:54 -19.92554 36.82188 36014 ft 430 kts 231°
2026-04-21 16:55 -19.96406 36.77327 36010 ft 430 kts 231°
2026-04-21 16:55 -20.00227 36.72488 36009 ft 430 kts 231°
2026-04-21 16:56 -20.04078 36.67619 36007 ft 430 kts 231°
2026-04-21 16:56 -20.07931 36.62738 36002 ft 430 kts 231°
2026-04-21 16:57 -20.11785 36.57861 36007 ft 431 kts 231°
2026-04-21 16:57 -20.15636 36.52974 36008 ft 431 kts 231°
2026-04-21 16:58 -20.19488 36.48090 36014 ft 431 kts 231°
2026-04-21 16:58 -20.23344 36.43202 36011 ft 431 kts 231°
2026-04-21 16:59 -20.27191 36.38312 36009 ft 431 kts 231°
2026-04-21 16:59 -20.31034 36.33420 36010 ft 431 kts 232°
2026-04-21 17:00 -20.34877 36.28529 36014 ft 430 kts 232°
2026-04-21 17:00 -20.38070 36.24461 36015 ft 430 kts 232°
2026-04-21 17:01 -20.42483 36.18682 36013 ft 430 kts 233°
2026-04-21 17:01 -20.46179 36.13727 36009 ft 430 kts 233°
2026-04-21 17:02 -20.49898 36.08738 36010 ft 430 kts 233°
2026-04-21 17:02 -20.53636 36.03761 36015 ft 430 kts 233°
2026-04-21 17:03 -20.57384 35.98795 36018 ft 429 kts 233°
2026-04-21 17:03 -20.61122 35.93824 36019 ft 429 kts 233°
2026-04-21 17:04 -20.64845 35.88844 36018 ft 429 kts 233°
2026-04-21 17:04 -20.68567 35.83860 36016 ft 429 kts 233°
2026-04-21 17:05 -20.72288 35.78877 36017 ft 429 kts 233°
2026-04-21 17:05 -20.76010 35.73898 36013 ft 429 kts 233°
2026-04-21 17:06 -20.79731 35.68917 36009 ft 429 kts 234°
2026-04-21 17:06 -20.83424 35.63969 36014 ft 429 kts 234°
2026-04-21 17:07 -20.87141 35.58983 36016 ft 429 kts 234°
2026-04-21 17:07 -20.90852 35.53993 36013 ft 429 kts 234°
2026-04-21 17:08 -20.94562 35.49003 36013 ft 429 kts 234°
2026-04-21 17:08 -20.98272 35.44006 36012 ft 429 kts 234°
2026-04-21 17:09 -21.03840 35.36515 36011 ft 429 kts 234°
2026-04-21 17:09 -21.07553 35.31514 36009 ft 429 kts 234°
2026-04-21 17:10 -21.11257 35.26509 36009 ft 429 kts 234°
2026-04-21 17:10 -21.14956 35.21498 36010 ft 429 kts 234°
2026-04-21 17:11 -21.18658 35.16485 36010 ft 429 kts 234°
2026-04-21 17:11 -21.22339 35.11456 36010 ft 429 kts 235°
2026-04-21 17:12 -21.25928 35.06361 36015 ft 428 kts 236°
2026-04-21 17:12 -21.29489 35.01245 36015 ft 428 kts 236°
2026-04-21 17:13 -21.33062 34.96134 36017 ft 428 kts 236°
2026-04-21 17:13 -21.36647 34.91027 36017 ft 428 kts 236°
2026-04-21 17:14 -21.40233 34.85921 36018 ft 428 kts 236°
2026-04-21 17:14 -21.43816 34.80813 36017 ft 428 kts 236°
2026-04-21 17:15 -21.47397 34.75701 36020 ft 428 kts 236°
2026-04-21 17:15 -21.50948 34.70620 36016 ft 428 kts 237°
2026-04-21 17:16 -21.54521 34.65497 36016 ft 428 kts 237°
2026-04-21 17:16 -21.58099 34.60378 36014 ft 428 kts 237°
2026-04-21 17:17 -21.61674 34.55254 36018 ft 428 kts 237°
2026-04-21 17:17 -21.65247 34.50125 36017 ft 429 kts 237°
2026-04-21 17:18 -21.68821 34.44994 36016 ft 429 kts 237°
2026-04-21 17:18 -21.72395 34.39864 36016 ft 429 kts 237°
2026-04-21 17:19 -21.75966 34.34727 36012 ft 429 kts 237°
2026-04-21 17:19 -21.79531 34.29579 36013 ft 429 kts 237°
2026-04-21 17:20 -21.83096 34.24435 36014 ft 429 kts 237°
2026-04-21 17:20 -21.86666 34.19289 36011 ft 429 kts 237°
2026-04-21 17:21 -21.90235 34.14136 36012 ft 429 kts 237°
2026-04-21 17:21 -21.93801 34.08982 36010 ft 429 kts 237°
2026-04-21 17:22 -21.97368 34.03818 36010 ft 429 kts 237°
2026-04-21 17:22 -22.00903 33.98640 36010 ft 429 kts 239°
2026-04-21 17:23 -22.04190 33.93337 36010 ft 427 kts 241°
2026-04-21 17:23 -22.07387 33.87939 36003 ft 427 kts 242°
2026-04-21 17:24 -22.10609 33.82555 36003 ft 427 kts 241°
2026-04-21 17:24 -22.13872 33.77193 36003 ft 428 kts 241°
2026-04-21 17:25 -22.17144 33.71833 36003 ft 428 kts 241°
2026-04-21 17:25 -22.20409 33.66467 35999 ft 428 kts 241°
2026-04-21 17:26 -22.23670 33.61085 36000 ft 428 kts 241°
2026-04-21 17:26 -22.26924 33.55709 35996 ft 428 kts 241°
2026-04-21 17:27 -22.30182 33.50323 35993 ft 428 kts 241°
2026-04-21 17:27 -22.33445 33.44940 35994 ft 428 kts 241°
2026-04-21 17:28 -22.36696 33.39550 35992 ft 428 kts 241°
2026-04-21 17:28 -22.39947 33.34153 35991 ft 428 kts 241°
2026-04-21 17:29 -22.43199 33.28754 35991 ft 428 kts 241°
2026-04-21 17:29 -22.46449 33.23356 35991 ft 428 kts 241°
2026-04-21 17:30 -22.49701 33.17956 35992 ft 429 kts 241°
2026-04-21 17:30 -22.52951 33.12545 35990 ft 429 kts 241°
2026-04-21 17:31 -22.56202 33.07138 35990 ft 429 kts 241°
2026-04-21 17:31 -22.59455 33.01725 35990 ft 429 kts 241°
2026-04-21 17:32 -22.62701 32.96308 35993 ft 429 kts 242°
2026-04-21 17:32 -22.65942 32.90883 35996 ft 429 kts 241°
2026-04-21 17:33 -22.69180 32.85452 35996 ft 429 kts 241°
2026-04-21 17:33 -22.72426 32.80022 35998 ft 430 kts 241°
2026-04-21 17:34 -22.75651 32.74625 36002 ft 430 kts 241°
2026-04-21 17:34 -22.78891 32.69183 36002 ft 430 kts 242°
2026-04-21 17:35 -22.82127 32.63740 36007 ft 429 kts 242°
2026-04-21 17:35 -22.85361 32.58297 36008 ft 429 kts 242°
2026-04-21 17:36 -22.88596 32.52849 36010 ft 430 kts 242°
2026-04-21 17:36 -22.91832 32.47401 36016 ft 430 kts 242°
2026-04-21 17:37 -22.95072 32.41947 36019 ft 430 kts 242°
2026-04-21 17:37 -22.98310 32.36492 36023 ft 430 kts 242°
2026-04-21 17:38 -23.01538 32.31030 36026 ft 430 kts 242°
2026-04-21 17:38 -23.04763 32.25572 36027 ft 429 kts 242°
2026-04-21 17:39 -23.07439 32.21037 36028 ft 429 kts 242°
2026-04-21 17:39 -23.10651 32.15574 36029 ft 429 kts 242°
2026-04-21 17:40 -23.13863 32.10110 36031 ft 428 kts 242°
2026-04-21 17:40 -23.17074 32.04659 36033 ft 428 kts 242°
2026-04-21 17:41 -23.20282 31.99208 36037 ft 427 kts 242°
2026-04-21 17:41 -23.23473 31.93767 36041 ft 427 kts 242°
2026-04-21 17:42 -23.26667 31.88325 36046 ft 427 kts 242°
2026-04-21 17:42 -23.29858 31.82887 36050 ft 426 kts 242°
2026-04-21 17:43 -23.33023 31.77488 36054 ft 426 kts 242°
2026-04-21 17:43 -23.36200 31.72052 36053 ft 425 kts 243°
2026-04-21 17:44 -23.39370 31.66616 36056 ft 425 kts 243°
2026-04-21 17:44 -23.42541 31.61181 36060 ft 425 kts 243°
2026-04-21 17:45 -23.45967 31.55923 36060 ft 431 kts 232°
2026-04-21 17:45 -23.50526 31.51590 36063 ft 436 kts 225°
2026-04-21 17:46 -23.55176 31.47343 36063 ft 436 kts 226°
2026-04-21 17:46 -23.59815 31.43084 36068 ft 436 kts 226°
2026-04-21 17:47 -23.64441 31.38825 36065 ft 435 kts 226°
2026-04-21 17:47 -23.69071 31.34568 36074 ft 435 kts 226°
2026-04-21 17:48 -23.73694 31.30319 36073 ft 434 kts 226°
2026-04-21 17:48 -23.78305 31.26065 36075 ft 434 kts 226°
2026-04-21 17:49 -23.82885 31.21845 36073 ft 433 kts 226°
2026-04-21 17:49 -23.87491 31.17594 36075 ft 433 kts 227°
2026-04-21 17:50 -23.92063 31.13322 36079 ft 432 kts 228°
2026-04-21 17:50 -23.96497 31.08911 36082 ft 430 kts 230°
2026-04-21 17:51 -24.00874 31.04455 36085 ft 430 kts 229°
2026-04-21 17:51 -24.05281 31.00025 36095 ft 430 kts 229°
2026-04-21 17:52 -24.09710 30.95615 36097 ft 430 kts 229°
2026-04-21 17:52 -24.14127 30.91207 36100 ft 430 kts 229°
2026-04-21 17:53 -24.18535 30.86789 36103 ft 429 kts 229°
2026-04-21 17:53 -24.22937 30.82370 36110 ft 429 kts 229°
2026-04-21 17:54 -24.27342 30.77964 36112 ft 428 kts 229°
2026-04-21 17:54 -24.31741 30.73558 36116 ft 428 kts 230°
2026-04-21 17:55 -24.36123 30.69148 36129 ft 427 kts 230°
2026-04-21 17:55 -24.40499 30.64737 36132 ft 427 kts 230°
2026-04-21 17:56 -24.44875 30.60334 36136 ft 426 kts 230°
2026-04-21 17:56 -24.49245 30.55940 36139 ft 426 kts 230°
2026-04-21 17:57 -24.53583 30.51568 36145 ft 426 kts 230°
2026-04-21 17:57 -24.57941 30.47171 36146 ft 425 kts 230°
2026-04-21 17:58 -24.62292 30.42774 36151 ft 425 kts 230°
2026-04-21 17:58 -24.66645 30.38375 36151 ft 425 kts 230°
2026-04-21 17:59 -24.70994 30.33971 36150 ft 425 kts 230°
2026-04-21 17:59 -24.75347 30.29568 36152 ft 425 kts 230°
2026-04-21 18:00 -24.79705 30.25168 36157 ft 425 kts 230°
2026-04-21 18:00 -24.84067 30.20756 36161 ft 425 kts 230°
2026-04-21 18:01 -24.88424 30.16342 36179 ft 426 kts 230°
2026-04-21 18:01 -24.92783 30.11925 36170 ft 426 kts 230°
2026-04-21 18:02 -24.97146 30.07503 36179 ft 426 kts 230°
2026-04-21 18:02 -25.01485 30.03110 36174 ft 427 kts 230°
2026-04-21 18:03 -25.05849 29.98678 36200 ft 426 kts 230°
2026-04-21 18:03 -25.10208 29.94239 36190 ft 427 kts 230°
2026-04-21 18:04 -25.14561 29.89792 36194 ft 426 kts 230°
2026-04-21 18:04 -25.18917 29.85343 36195 ft 427 kts 230°
2026-04-21 18:05 -25.23268 29.80896 36196 ft 426 kts 230°
2026-04-21 18:05 -25.27620 29.76448 36195 ft 426 kts 230°
2026-04-21 18:06 -25.31969 29.72001 36193 ft 426 kts 230°
2026-04-21 18:06 -25.36323 29.67541 36185 ft 427 kts 230°
2026-04-21 18:07 -25.40679 29.63071 36182 ft 428 kts 230°
2026-04-21 18:07 -25.45050 29.58592 36182 ft 429 kts 230°
2026-04-21 18:08 -25.49427 29.54106 36186 ft 429 kts 231°
2026-04-21 18:08 -25.53801 29.49609 36194 ft 429 kts 231°
2026-04-21 18:09 -25.58162 29.45107 36169 ft 427 kts 231°
2026-04-21 18:09 -25.59595 29.43629 35956 ft 423 kts 231°
2026-04-21 18:09 -25.62459 29.40680 35443 ft 418 kts 231°
2026-04-21 18:10 -25.64583 29.38492 35040 ft 415 kts 231°
2026-04-21 18:10 -25.66685 29.36325 34634 ft 411 kts 231°
2026-04-21 18:10 -25.68771 29.34173 34238 ft 408 kts 231°
2026-04-21 18:10 -25.70817 29.32063 33788 ft 406 kts 231°
2026-04-21 18:11 -25.72877 29.29940 33345 ft 403 kts 231°
2026-04-21 18:11 -25.74918 29.27832 32910 ft 400 kts 231°
2026-04-21 18:11 -25.76941 29.25737 32476 ft 397 kts 231°
2026-04-21 18:11 -25.78947 29.23654 32049 ft 394 kts 231°
2026-04-21 18:12 -25.80940 29.21579 31634 ft 390 kts 233°
2026-04-21 18:12 -25.82653 29.19317 31244 ft 377 kts 244°
2026-04-21 18:12 -25.83882 29.16812 30867 ft 365 kts 254°
2026-04-21 18:12 -25.84781 29.14199 30478 ft 362 kts 256°
2026-04-21 18:13 -25.85666 29.11590 30062 ft 360 kts 255°
2026-04-21 18:13 -25.86551 29.08992 29635 ft 359 kts 255°
2026-04-21 18:13 -25.87435 29.06404 29219 ft 358 kts 255°
2026-04-21 18:13 -25.88318 29.03828 28822 ft 356 kts 255°
2026-04-21 18:14 -25.90075 28.98708 28041 ft 353 kts 255°
2026-04-21 18:14 -25.90943 28.96161 27646 ft 352 kts 255°
2026-04-21 18:14 -25.91811 28.93624 27254 ft 351 kts 255°
2026-04-21 18:15 -25.92677 28.91099 26871 ft 349 kts 255°
2026-04-21 18:15 -25.93538 28.88586 26487 ft 348 kts 255°
2026-04-21 18:15 -25.94397 28.86078 26097 ft 346 kts 255°
2026-04-21 18:15 -25.95249 28.83584 25713 ft 345 kts 255°
2026-04-21 18:16 -25.96094 28.81097 25317 ft 343 kts 255°
2026-04-21 18:16 -25.96937 28.78617 24924 ft 342 kts 255°
2026-04-21 18:16 -25.97777 28.76151 24539 ft 341 kts 255°
2026-04-21 18:16 -25.98617 28.73691 24164 ft 340 kts 254°
2026-04-21 18:17 -25.99451 28.71242 23788 ft 338 kts 255°
2026-04-21 18:17 -26.00268 28.68834 23360 ft 337 kts 254°
2026-04-21 18:17 -26.01089 28.66405 22945 ft 335 kts 254°
2026-04-21 18:17 -26.01909 28.63991 22556 ft 332 kts 254°
2026-04-21 18:18 -26.02722 28.61596 22172 ft 330 kts 254°
2026-04-21 18:18 -26.03532 28.59215 21787 ft 328 kts 254°
2026-04-21 18:18 -26.04334 28.56850 21414 ft 326 kts 254°
2026-04-21 18:18 -26.05131 28.54498 21045 ft 324 kts 254°
2026-04-21 18:19 -26.05922 28.52163 20673 ft 322 kts 254°
2026-04-21 18:19 -26.06707 28.49843 20308 ft 320 kts 254°
2026-04-21 18:19 -26.07485 28.47536 19944 ft 318 kts 254°
2026-04-21 18:19 -26.08287 28.45254 19597 ft 318 kts 248°
2026-04-21 18:20 -26.09668 28.43313 19263 ft 327 kts 225°
2026-04-21 18:20 -26.11624 28.41987 18913 ft 336 kts 206°
2026-04-21 18:20 -26.13883 28.41348 18791 ft 333 kts 196°
2026-04-21 18:20 -26.16131 28.40895 18682 ft 324 kts 196°
2026-04-21 18:21 -26.18370 28.40747 18457 ft 327 kts 179°
2026-04-21 18:21 -26.20608 28.41516 17730 ft 349 kts 153°
2026-04-21 18:21 -26.22488 28.43256 17256 ft 356 kts 129°
2026-04-21 18:21 -26.23670 28.45669 16865 ft 356 kts 106°
2026-04-21 18:22 -26.23972 28.48371 16500 ft 351 kts 82°
2026-04-21 18:22 -26.23366 28.50954 16134 ft 342 kts 59°
2026-04-21 18:22 -26.21973 28.53013 15789 ft 329 kts 35°
2026-04-21 18:22 -26.20044 28.54250 15423 ft 315 kts 11°
2026-04-21 18:23 -26.17916 28.54621 15055 ft 308 kts 360°
2026-04-21 18:23 -26.15777 28.54825 14726 ft 307 kts 360°
2026-04-21 18:23 -26.13647 28.55017 14496 ft 308 kts 360°
2026-04-21 18:23 -26.11506 28.55205 14264 ft 308 kts 360°
2026-04-21 18:24 -26.09375 28.55387 14070 ft 307 kts 360°
2026-04-21 18:24 -26.07246 28.55564 13859 ft 306 kts 360°
2026-04-21 18:24 -26.05127 28.55624 13649 ft 301 kts 349°
2026-04-21 18:24 -26.03159 28.54973 13445 ft 293 kts 329°
2026-04-21 18:25 -26.01570 28.53608 13237 ft 288 kts 309°
2026-04-21 18:25 -26.00536 28.51732 13034 ft 286 kts 290°
2026-04-21 18:25 -26.00137 28.49545 12331 ft 297 kts 271°
2026-04-21 18:25 -26.00187 28.47207 11553 ft 308 kts 269°
2026-04-21 18:26 -26.00248 28.44813 10775 ft 309 kts 269°
2026-04-21 18:26 -26.00302 28.42486 10244 ft 301 kts 269°
2026-04-21 18:26 -26.00348 28.40272 9781 ft 294 kts 270°
2026-04-21 18:26 -26.00392 28.38030 9227 ft 286 kts 270°
2026-04-21 18:27 -26.00433 28.35844 8739 ft 278 kts 270°
2026-04-21 18:27 -26.00470 28.33785 8592 ft 258 kts 270°
2026-04-21 18:27 -26.00523 28.31817 8139 ft 253 kts 264°
2026-04-21 18:27 -26.01144 28.30134 7924 ft 242 kts 229°
2026-04-21 18:28 -26.02511 28.29155 7727 ft 230 kts 203°
2026-04-21 18:28 -26.04003 28.28646 7436 ft 220 kts 197°
2026-04-21 18:28 -26.05442 28.28219 7161 ft 206 kts 197°
2026-04-21 18:28 -26.06780 28.27812 6921 ft 192 kts 198°
2026-04-21 18:29 -26.08025 28.27428 6709 ft 179 kts 197°
2026-04-21 18:29 -26.09169 28.27075 6476 ft 165 kts 197°
2026-04-21 18:29 -26.10245 28.26742 6249 ft 157 kts 196°
2026-04-21 18:29 -26.11277 28.26422 6029 ft 151 kts 195°
2026-04-21 18:30 -26.11940 28.26217 5890 ft 149 kts 195°
2026-04-21 18:30 -26.12923 28.25913 5657 ft 146 kts 194°
2026-04-21 18:30 -26.13889 28.25613 5513 ft 137 kts 194°
2026-04-21 18:30 -26.14667 28.25373 5505 ft 92 kts 195°
2026-04-21 18:31 -26.15137 28.25228 5510 ft 57 kts 195°
2026-04-21 18:31 -26.15474 28.25124 5515 ft 40 kts 195°
2026-04-21 18:31 -26.15598 28.25058 5517 ft 13 kts 245°
2026-04-21 18:31 -26.15583 28.24958 5515 ft 15 kts 288°
2026-04-21 18:32 -26.15511 28.24902 5514 ft 15 kts 15°
2026-04-21 18:32 -26.15412 28.24935 5515 ft 15 kts 16°
2026-04-21 18:32 -26.15302 28.24967 5514 ft 17 kts 13°
2026-04-21 18:32 -26.15185 28.25005 5516 ft 18 kts 15°
2026-04-21 18:33 -26.15063 28.25043 5515 ft 19 kts 15°
2026-04-21 18:33 -26.14923 28.25087 5512 ft 23 kts 15°
2026-04-21 18:33 -26.14767 28.25133 5512 ft 24 kts 17°
2026-04-21 18:33 -26.14610 28.25184 5511 ft 24 kts 15°
2026-04-21 18:34 -26.14484 28.25210 5511 ft 16 kts 344°
2026-04-21 18:34 -26.14403 28.25135 5517 ft 13 kts 316°
2026-04-21 18:34 -26.14356 28.25084 5526 ft 7 kts 315°
2026-04-21 18:34 -26.14323 28.25047 5531 ft 7 kts 316°
2026-04-21 18:35 -26.14270 28.24991 5531 ft 14 kts 316°
2026-04-21 18:35 -26.14192 28.24906 5531 ft 16 kts 315°
2026-04-21 18:35 -26.14107 28.24813 5531 ft 18 kts 316°
2026-04-21 18:35 -26.14013 28.24712 5531 ft 19 kts 316°
2026-04-21 18:36 -26.13913 28.24603 5532 ft 21 kts 315°
2026-04-21 18:36 -26.13808 28.24489 5536 ft 20 kts 315°
2026-04-21 18:36 -26.13711 28.24383 5539 ft 20 kts 316°
2026-04-21 18:36 -26.13609 28.24273 5541 ft 21 kts 315°
2026-04-21 18:37 -26.13501 28.24155 5540 ft 22 kts 315°
2026-04-21 18:37 -26.13398 28.24042 5547 ft 20 kts 316°
2026-04-21 18:37 -26.13291 28.23928 5545 ft 23 kts 314°
2026-04-21 18:37 -26.13172 28.23799 5544 ft 25 kts 316°
2026-04-21 18:38 -26.13080 28.23721 5546 ft 15 kts 352°
2026-04-21 18:38 -26.12976 28.23749 5548 ft 16 kts 16°
2026-04-21 18:38 -26.12863 28.23776 5544 ft 16 kts 345°
2026-04-21 18:38 -26.12828 28.23682 5545 ft 11 kts 276°
2026-04-21 18:39 -26.12819 28.23598 5546 ft 11 kts 276°
2026-04-21 18:39 -26.12813 28.23514 5546 ft 9 kts 266°
2026-04-21 18:39 -26.12867 28.23494 5547 ft 9 kts 184°
2026-04-21 18:39 -26.12905 28.23489 5547 ft 3 kts 187°
2026-04-21 18:40 -26.12908 28.23489 5547 ft 0 kts 186°